This demonstration page uses our WeatherBlox Daily Observations layout. Learn more.

Left ArrowRight Arrow

Hourly Observations for November 19, 2021

Temp ( °F °C ) Dew Point ( °F °C ) Humidity (%) Winds ( mph kmh ) Pressure ( in mb ) Visibility ( mi km ) Precip ( " mm )
12:15 am 00:15 Clear 35 1.6 16 -9 46 46 SE 12 19 30.25 1024 10 16 0.00 0.00
12:35 am 00:35 Clear 35 1.7 16 -9 45 45 SSE 9 15 30.25 1024 10 16 0.00 0.00
12:55 am 00:55 Clear 38 3.1 15 -9.6 39 39 S 17 28 30.21 1023 10 16 0.00 0.00
1:15 am 01:15 Clear 38 3.1 14 -10 38 38 SSE 14 22 30.20 1023 10 16 0.00 0.00
1:35 am 01:35 Clear 37 2.8 14 -10 39 39 SSE 12 19 30.19 1022 10 16 0.00 0.00
1:55 am 01:55 Clear 37 2.7 14 -10.1 39 39 SSE 14 22 30.18 1022 10 16 0.00 0.00
2:15 am 02:15 Clear 37 2.6 14 -10.1 39 39 SSE 13 20 30.18 1022 10 16 0.00 0.00
2:35 am 02:35 Clear 37 2.9 14 -10.1 38 38 SSE 8 13 30.18 1022 10 16 0.00 0.00
2:55 am 02:55 Clear 38 3.1 14 -10.2 37 37 SSE 9 15 30.18 1022 10 16 0.00 0.00
3:15 am 03:15 Clear 38 3.6 13 -10.4 35 35 S 12 19 30.18 1022 10 16 0.00 0.00
3:35 am 03:35 Clear 38 3.5 13 -10.5 35 35 S 17 28 30.16 1021 10 16 0.00 0.00
3:55 am 03:55 Clear 38 3.3 13 -10.5 36 36 S 12 19 30.16 1021 10 16 0.00 0.00
4:15 am 04:15 Clear 38 3.1 13 -10.4 37 37 S 17 28 30.15 1021 10 16 0.00 0.00
4:35 am 04:35 Clear 37 2.6 13 -10.3 38 38 S 16 26 30.14 1021 10 16 0.00 0.00
4:55 am 04:55 Clear 36 2.4 13 -10.3 39 39 S 15 24 30.14 1021 10 16 0.00 0.00
5:15 am 05:15 Clear 36 2.2 14 -10.2 40 40 S 13 20 30.14 1020 10 16 0.00 0.00
5:35 am 05:35 Clear 35 1.9 14 -10 41 41 S 15 24 30.13 1020 10 16 0.00 0.00
5:55 am 05:55 Clear 36 2 14 -10.1 41 41 S 14 22 30.13 1020 10 16 0.00 0.00
6:15 am 06:15 Clear 35 1.6 14 -10 42 42 S 10 17 30.14 1021 10 16 0.00 0.00
6:35 am 06:35 Clear 35 1.6 14 -10 42 42 S 14 22 30.12 1020 10 16 0.00 0.00
6:55 am 06:55 Clear 35 1.4 14 -9.8 43 43 S 8 13 30.13 1020 10 16 0.00 0.00
7:15 am 07:15 Clear 34 0.9 14 -9.8 45 45 S 8 13 30.14 1021 10 16 0.00 0.00
7:35 am 07:35 Sunny 33 0.5 15 -9.5 47 47 S 7 11 30.15 1021 10 16 0.00 0.00
7:55 am 07:55 Sunny 33 0.6 15 -9.5 47 47 S 8 13 30.14 1021 10 16 0.00 0.00
8:15 am 08:15 Sunny 34 1 15 -9.4 46 46 SSE 7 11 30.14 1021 10 16 0.00 0.00
8:35 am 08:35 Sunny 34 1.3 16 -8.7 48 48 SSE 8 13 30.12 1020 10 16 0.00 0.00
8:55 am 08:55 Sunny 36 2.4 16 -9 43 43 S 10 17 30.11 1020 10 16 0.00 0.00
9:15 am 09:15 Sunny 37 2.9 15 -9.2 41 41 S 13 20 30.11 1020 10 16 0.00 0.00
9:35 am 09:35 Sunny 38 3.3 15 -9.3 40 40 S 10 17 30.10 1019 10 16 0.00 0.00
9:55 am 09:55 Sunny 38 3.6 16 -9.1 39 39 SSW 9 15 30.10 1019 10 16 0.00 0.00
10:15 am 10:15 Sunny 39 4.1 15 -9.2 38 38 S 12 19 30.10 1019 10 16 0.00 0.00
10:35 am 10:35 Sunny 40 4.6 16 -9.1 37 37 SSW 12 19 30.08 1019 10 16 0.00 0.00
10:55 am 10:55 Sunny 41 5 16 -8.9 36 36 SSW 10 17 30.08 1019 10 16 0.00 0.00
11:15 am 11:15 Sunny 42 5.6 17 -8.4 36 36 SW 9 15 30.08 1019 10 16 0.00 0.00
11:35 am 11:35 Sunny 43 6.3 17 -8.3 35 35 SSW 8 13 30.06 1018 10 16 0.00 0.00
11:55 am 11:55 Sunny 46 7.8 18 -7.7 33 33 SW 8 13 30.03 1017 10 16 0.00 0.00
12:15 pm 12:15 Sunny 47 8.6 19 -7.3 32 32 SSW 8 13 30.00 1016 10 16 0.00 0.00
12:35 pm 12:35 Sunny 48 8.8 19 -7.5 31 31 SSE 9 15 29.98 1015 10 16 0.00 0.00
2:15 pm 14:15 Sunny 52 10.9 19 -7.2 28 28 S 6 9 29.93 1014 10 16 0.00 0.00
2:35 pm 14:35 Sunny 53 11.4 19 -7.3 27 27 S 3 6 29.91 1013 10 16 0.00 0.00
2:55 pm 14:55 Sunny 53 11.7 19 -7 27 27 SSW 7 11 29.91 1013 10 16 0.00 0.00
3:15 pm 15:15 Sunny 53 11.8 21 -6.3 28 28 SW 8 13 29.90 1013 10 16 0.00 0.00
3:35 pm 15:35 Sunny 56 13.5 20 -6.8 24 24 SW 8 13 29.89 1012 10 16 0.00 0.00
3:55 pm 15:55 Sunny 55 12.5 20 -6.6 26 26 SSW 8 13 29.90 1012 10 16 0.00 0.00
4:15 pm 16:15 Sunny 55 12.5 21 -6.3 27 27 SSW 8 13 29.91 1013 10 16 0.00 0.00
4:35 pm 16:35 Sunny 53 11.5 21 -6.1 29 29 S 7 11 29.92 1013 10 16 0.00 0.00
4:55 pm 16:55 Sunny 51 10.5 22 -5.5 32 32 SSW 6 9 29.93 1013 10 16 0.00 0.00
5:15 pm 17:15 Sunny 49 9.4 21 -6 33 33 SSW 7 11 29.95 1014 10 16 0.00 0.00
5:35 pm 17:35 Clear 46 7.9 21 -6 37 37 S 5 7 29.95 1014 10 16 0.00 0.00
5:55 pm 17:55 Partly Cloudy 42 5.7 21 -6 43 43 S 7 11 29.99 1016 7 11 0.00 0.00
6:15 pm 18:15 Partly Cloudy 41 4.9 21 -6.1 45 45 S 7 11 30.00 1016 10 16 0.00 0.00
6:35 pm 18:35 Clear 41 4.9 20 -6.5 44 44 S 3 6 30.00 1016 10 16 0.00 0.00
6:55 pm 18:55 Clear 41 4.8 20 -6.4 44 44 Calm 30.01 1016 10 16 0.00 0.00
7:15 pm 19:15 Clear 40 4.3 20 -6.6 45 45 S 3 6 30.01 1016 10 16 0.00 0.00
7:35 pm 19:35 Clear 42 5.7 20 -6.5 41 41 Calm 30.00 1016 10 16 0.00 0.00
7:55 pm 19:55 Clear 38 3.6 22 -5.5 52 52 Calm 30.02 1017 10 16 0.00 0.00
8:15 pm 20:15 Clear 35 1.5 22 -5.3 61 61 Calm 30.05 1018 10 16 0.00 0.00
8:35 pm 20:35 Clear 32 0.2 22 -5.5 66 66 NNE 3 6 30.06 1018 10 16 0.00 0.00
8:55 pm 20:55 Clear 32 0 22 -5.4 67 67 ENE 3 6 30.06 1018 10 16 0.00 0.00
9:15 pm 21:15 Clear 33 0.3 22 -5.6 65 65 ENE 3 6 30.06 1018 10 16 0.00 0.00
9:35 pm 21:35 Clear 32 0.2 22 -5.7 65 65 ENE 5 7 30.06 1018 10 16 0.00 0.00
9:55 pm 21:55 Clear 31 -0.4 21 -6 66 66 NNE 5 7 30.07 1018 10 16 0.00 0.00
10:15 pm 22:15 Partly Cloudy 31 -0.6 21 -6.1 67 67 E 3 6 30.06 1018 10 16 0.00 0.00
10:35 pm 22:35 Partly Cloudy 31 -0.7 21 -6.2 67 67 SSE 3 6 30.07 1018 10 16 0.00 0.00
10:55 pm 22:55 Partly Cloudy 28 -2.1 22 -5.6 77 77 Calm 30.09 1019 10 16 0.00 0.00
11:15 pm 23:15 Clear 30 -0.9 22 -5.7 70 70 Calm 30.08 1018 10 16 0.00 0.00
11:35 pm 23:35 Clear 29 -1.8 21 -6.1 73 73 Calm 30.08 1019 10 16 0.00 0.00
11:55 pm 23:55 Clear 26 -3.3 20 -6.5 79 79 Calm 30.10 1019 10 16 0.00 0.00

Powered by AerisWeather